Time,TemperatureF,DewpointF,PressureIn,WindDirection,WindDirectionDegrees,WindSpeedMPH,WindSpeedGustMPH,Humidity,HourlyPrecipIn,Conditions,Clouds,dailyrainin,SoftwareType,DateUTC
2013-01-25 00:09:00,41.4,21.0,30.28,East,100,2.0,6.0,45,0.00,,,0.00,weatherlink.com 1.10,2013-01-25 06:09:00,
2013-01-25 00:24:00,41.2,21.0,30.28,NE,49,1.0,4.0,45,0.00,,,0.00,weatherlink.com 1.10,2013-01-25 06:24:00,
2013-01-25 00:39:00,40.8,20.0,30.29,NE,53,1.0,7.0,44,0.00,,,0.00,weatherlink.com 1.10,2013-01-25 06:39:00,
2013-01-25 00:54:00,40.7,21.0,30.27,East,82,1.0,5.0,45,0.00,,,0.00,weatherlink.com 1.10,2013-01-25 06:54:00,
2013-01-25 01:09:00,40.7,21.0,30.28,East,90,1.0,3.0,45,0.00,,,0.00,weatherlink.com 1.10,2013-01-25 07:09:00,
2013-01-25 01:24:00,40.7,20.0,30.29,NE,51,2.0,4.0,44,0.00,,,0.00,weatherlink.com 1.10,2013-01-25 07:24:00,
2013-01-25 01:39:00,40.9,20.0,30.29,ENE,61,2.0,5.0,43,0.00,,,0.00,weatherlink.com 1.10,2013-01-25 07:39:00,
2013-01-25 01:54:00,40.9,20.0,30.29,NE,51,1.0,3.0,44,0.00,,,0.00,weatherlink.com 1.10,2013-01-25 07:54:00,
2013-01-25 02:09:00,41.0,21.0,30.29,SE,133,0.0,5.0,46,0.00,,,0.00,weatherlink.com 1.10,2013-01-25 08:09:00,
2013-01-25 02:24:00,41.3,21.0,30.28,ESE,105,2.0,4.0,44,0.00,,,0.00,weatherlink.com 1.10,2013-01-25 08:24:00,
2013-01-25 02:39:00,41.0,20.0,30.27,SE,126,3.0,9.0,43,0.00,,,0.00,weatherlink.com 1.10,2013-01-25 08:39:00,
2013-01-25 02:54:00,41.1,21.0,30.26,SE,139,4.0,8.0,44,0.00,,,0.00,weatherlink.com 1.10,2013-01-25 08:54:00,
2013-01-25 03:09:00,41.4,21.0,30.27,SE,126,0.0,4.0,44,0.00,,,0.00,weatherlink.com 1.10,2013-01-25 09:09:00,
2013-01-25 03:24:00,41.5,21.0,30.27,ESE,120,1.0,5.0,45,0.00,,,0.00,weatherlink.com 1.10,2013-01-25 09:24:00,
2013-01-25 03:40:00,41.6,22.0,30.26,SE,127,1.0,6.0,45,0.00,,,0.00,weatherlink.com 1.10,2013-01-25 09:40:00,
2013-01-25 03:54:00,41.7,22.0,30.26,SE,133,3.0,5.0,45,0.00,,,0.00,weatherlink.com 1.10,2013-01-25 09:54:00,
2013-01-25 04:09:00,41.8,22.0,30.26,SSE,150,6.0,7.0,45,0.00,,,0.00,weatherlink.com 1.10,2013-01-25 10:09:00,
2013-01-25 04:24:00,42.2,22.0,30.26,SE,130,3.0,8.0,45,0.00,,,0.00,weatherlink.com 1.10,2013-01-25 10:24:00,
2013-01-25 04:40:00,42.6,22.0,30.25,ESE,115,2.0,7.0,44,0.00,,,0.00,weatherlink.com 1.10,2013-01-25 10:40:00,
2013-01-25 04:54:00,43.3,21.0,30.26,ESE,122,4.0,13.0,42,0.00,,,0.00,weatherlink.com 1.10,2013-01-25 10:54:00,
2013-01-25 05:09:00,43.6,22.0,30.26,SE,134,5.0,10.0,42,0.00,,,0.00,weatherlink.com 1.10,2013-01-25 11:09:00,
2013-01-25 05:25:00,43.8,22.0,30.25,SSE,152,5.0,10.0,42,0.00,,,0.00,weatherlink.com 1.10,2013-01-25 11:25:00,
2013-01-25 05:40:00,44.2,22.0,30.24,SE,139,4.0,7.0,41,0.00,,,0.00,weatherlink.com 1.10,2013-01-25 11:40:00,
2013-01-25 05:55:00,44.6,21.0,30.26,South,172,7.0,14.0,40,0.00,,,0.00,weatherlink.com 1.10,2013-01-25 11:55:00,
2013-01-25 06:10:00,44.7,22.0,30.25,SE,128,7.0,11.0,41,0.00,,,0.00,weatherlink.com 1.10,2013-01-25 12:10:00,
2013-01-25 06:25:00,44.8,22.0,30.24,SE,141,5.0,13.0,40,0.00,,,0.00,weatherlink.com 1.10,2013-01-25 12:25:00,
2013-01-25 06:40:00,44.9,22.0,30.25,ESE,119,8.0,14.0,41,0.00,,,0.00,weatherlink.com 1.10,2013-01-25 12:40:00,
2013-01-25 06:55:00,45.2,22.0,30.26,South,170,3.0,12.0,40,0.00,,,0.00,weatherlink.com 1.10,2013-01-25 12:55:00,
2013-01-25 07:10:00,45.3,23.0,30.25,SSE,163,4.0,11.0,42,0.00,,,0.00,weatherlink.com 1.10,2013-01-25 13:10:00,
2013-01-25 07:25:00,45.3,23.0,30.25,SSW,205,2.0,10.0,42,0.00,,,0.00,weatherlink.com 1.10,2013-01-25 13:25:00,
2013-01-25 07:40:00,45.7,24.0,30.24,SE,146,3.0,9.0,42,0.00,,,0.00,weatherlink.com 1.10,2013-01-25 13:40:00,
2013-01-25 07:59:00,45.8,24.0,30.24,SE,132,8.0,12.0,43,0.00,,,0.00,weatherlink.com 1.10,2013-01-25 13:59:00,
2013-01-25 08:10:00,46.2,25.0,30.24,SSE,166,4.0,10.0,43,0.00,,,0.00,weatherlink.com 1.10,2013-01-25 14:10:00,
2013-01-25 08:25:00,46.7,25.0,30.23,SSW,203,3.0,10.0,43,0.00,,,0.00,weatherlink.com 1.10,2013-01-25 14:25:00,
2013-01-25 08:40:00,47.0,26.0,30.24,SW,235,2.0,9.0,44,0.00,,,0.00,weatherlink.com 1.10,2013-01-25 14:40:00,
2013-01-25 08:55:00,47.3,27.0,30.25,SSE,158,3.0,7.0,45,0.00,,,0.00,weatherlink.com 1.10,2013-01-25 14:55:00,
2013-01-25 09:10:00,47.9,28.0,30.25,WSW,242,2.0,10.0,46,0.00,,,0.00,weatherlink.com 1.10,2013-01-25 15:10:00,
2013-01-25 09:25:00,48.3,29.0,30.23,South,186,3.0,10.0,47,0.00,,,0.00,weatherlink.com 1.10,2013-01-25 15:25:00,
2013-01-25 09:40:00,49.1,29.0,30.23,South,171,3.0,9.0,46,0.00,,,0.00,weatherlink.com 1.10,2013-01-25 15:40:00,
2013-01-25 09:55:00,49.6,30.0,30.23,SE,139,4.0,10.0,47,0.00,,,0.00,weatherlink.com 1.10,2013-01-25 15:55:00,
2013-01-25 10:10:00,50.2,31.0,30.23,South,191,2.0,9.0,48,0.00,,,0.00,weatherlink.com 1.10,2013-01-25 16:10:00,
2013-01-25 10:25:00,51.3,34.0,30.23,SSE,157,2.0,10.0,51,0.00,,,0.00,weatherlink.com 1.10,2013-01-25 16:25:00,
2013-01-25 10:41:00,52.2,36.0,30.21,SSW,193,6.0,16.0,54,0.00,,,0.00,weatherlink.com 1.10,2013-01-25 16:41:00,
2013-01-25 10:56:00,54.6,36.0,30.19,SSW,205,7.0,13.0,50,0.00,,,0.00,weatherlink.com 1.10,2013-01-25 16:56:00,
2013-01-25 11:10:00,56.3,37.0,30.19,WSW,249,7.0,8.0,49,0.00,,,0.00,weatherlink.com 1.10,2013-01-25 17:10:00,
2013-01-25 11:25:00,58.0,39.0,30.17,West,274,4.0,13.0,50,0.00,,,0.00,weatherlink.com 1.10,2013-01-25 17:25:00,
2013-01-25 11:40:00,58.3,39.0,30.16,West,261,3.0,20.0,49,0.00,,,0.00,weatherlink.com 1.10,2013-01-25 17:40:00,
2013-01-25 11:55:00,59.5,40.0,30.15,SSW,205,9.0,14.0,48,0.00,,,0.00,weatherlink.com 1.10,2013-01-25 17:55:00,
2013-01-25 12:11:00,60.2,40.0,30.15,SW,230,3.0,11.0,48,0.00,,,0.00,weatherlink.com 1.10,2013-01-25 18:11:00,
2013-01-25 12:26:00,61.1,43.0,30.14,SW,226,6.0,14.0,52,0.00,,,0.00,weatherlink.com 1.10,2013-01-25 18:26:00,
2013-01-25 12:41:00,61.5,45.0,30.13,SSE,168,5.0,12.0,56,0.00,,,0.00,weatherlink.com 1.10,2013-01-25 18:41:00,
2013-01-25 12:56:00,62.1,46.0,30.12,West,264,3.0,11.0,57,0.00,,,0.00,weatherlink.com 1.10,2013-01-25 18:56:00,
2013-01-25 13:11:00,62.4,48.0,30.12,West,279,2.0,13.0,59,0.00,,,0.00,weatherlink.com 1.10,2013-01-25 19:11:00,
2013-01-25 13:26:00,62.5,50.0,30.11,SW,215,7.0,13.0,63,0.00,,,0.00,weatherlink.com 1.10,2013-01-25 19:26:00,
2013-01-25 13:41:00,62.3,50.0,30.10,SSW,201,4.0,13.0,65,0.00,,,0.00,weatherlink.com 1.10,2013-01-25 19:41:00,
2013-01-25 13:56:00,62.7,51.0,30.10,SSW,210,2.0,12.0,65,0.00,,,0.00,weatherlink.com 1.10,2013-01-25 19:56:00,
2013-01-25 14:11:00,63.0,51.0,30.09,SW,234,2.0,13.0,65,0.00,,,0.00,weatherlink.com 1.10,2013-01-25 20:11:00,
2013-01-25 14:26:00,63.1,51.0,30.09,SW,231,2.0,12.0,65,0.00,,,0.00,weatherlink.com 1.10,2013-01-25 20:26:00,
2013-01-25 14:41:00,63.2,51.0,30.10,SW,234,4.0,10.0,65,0.00,,,0.00,weatherlink.com 1.10,2013-01-25 20:41:00,
2013-01-25 14:56:00,63.5,51.0,30.09,SSW,193,4.0,10.0,63,0.00,,,0.00,weatherlink.com 1.10,2013-01-25 20:56:00,
2013-01-25 15:11:00,63.9,50.0,30.09,West,274,4.0,11.0,61,0.00,,,0.00,weatherlink.com 1.10,2013-01-25 21:11:00,
2013-01-25 15:26:00,63.9,50.0,30.09,East,81,4.0,14.0,60,0.00,,,0.00,weatherlink.com 1.10,2013-01-25 21:26:00,
2013-01-25 15:41:00,63.7,50.0,30.09,WSW,245,5.0,12.0,61,0.00,,,0.00,weatherlink.com 1.10,2013-01-25 21:41:00,
2013-01-25 15:56:00,63.7,50.0,30.09,WSW,239,4.0,18.0,61,0.00,,,0.00,weatherlink.com 1.10,2013-01-25 21:56:00,
2013-01-25 16:11:00,63.1,51.0,30.10,WNW,295,1.0,12.0,64,0.00,,,0.00,weatherlink.com 1.10,2013-01-25 22:11:00,
2013-01-25 16:26:00,62.5,51.0,30.10,WSW,253,1.0,10.0,67,0.00,,,0.00,weatherlink.com 1.10,2013-01-25 22:26:00,
2013-01-25 16:41:00,61.0,52.0,30.11,NW,326,9.0,11.0,73,0.00,,,0.00,weatherlink.com 1.10,2013-01-25 22:41:00,
2013-01-25 16:56:00,59.2,53.0,30.11,SW,230,0.0,9.0,81,0.00,,,0.00,weatherlink.com 1.10,2013-01-25 22:56:00,
2013-01-25 17:11:00,59.3,54.0,30.11,WSW,243,4.0,10.0,81,0.00,,,0.00,weatherlink.com 1.10,2013-01-25 23:11:00,
2013-01-25 17:26:00,59.7,53.0,30.11,WSW,243,4.0,11.0,79,0.00,,,0.00,weatherlink.com 1.10,2013-01-25 23:26:00,
2013-01-25 17:41:00,60.2,53.0,30.11,SSW,210,4.0,6.0,78,0.00,,,0.00,weatherlink.com 1.10,2013-01-25 23:41:00,
2013-01-25 17:56:00,60.4,53.0,30.11,WSW,245,3.0,9.0,77,0.00,,,0.00,weatherlink.com 1.10,2013-01-25 23:56:00,
2013-01-25 18:11:00,59.4,54.0,30.12,West,261,0.0,5.0,81,0.00,,,0.00,weatherlink.com 1.10,2013-01-26 00:11:00,
2013-01-25 18:26:00,58.7,54.0,30.12,West,264,0.0,10.0,85,0.00,,,0.00,weatherlink.com 1.10,2013-01-26 00:26:00,
2013-01-25 18:41:00,57.7,55.0,30.13,NW,316,6.0,6.0,89,0.01,,,0.01,weatherlink.com 1.10,2013-01-26 00:41:00,
2013-01-25 18:56:00,57.2,55.0,30.13,NW,309,0.0,2.0,92,0.02,,,0.02,weatherlink.com 1.10,2013-01-26 00:56:00,
2013-01-25 19:11:00,57.0,55.0,30.13,West,261,2.0,4.0,93,0.03,,,0.03,weatherlink.com 1.10,2013-01-26 01:11:00,
2013-01-25 19:26:00,56.9,55.0,30.13,WSW,258,1.0,5.0,93,0.04,,,0.04,weatherlink.com 1.10,2013-01-26 01:26:00,
2013-01-25 19:42:00,56.7,55.0,30.13,West,261,3.0,3.0,94,0.04,,,0.05,weatherlink.com 1.10,2013-01-26 01:42:00,
2013-01-25 19:56:00,56.8,55.0,30.13,West,261,0.0,1.0,94,0.05,,,0.07,weatherlink.com 1.10,2013-01-26 01:56:00,
2013-01-25 20:11:00,56.8,55.0,30.14,North,353,0.0,5.0,94,0.05,,,0.08,weatherlink.com 1.10,2013-01-26 02:11:00,
2013-01-25 20:27:00,52.8,51.0,30.15,NNW,329,2.0,3.0,94,0.07,,,0.11,weatherlink.com 1.10,2013-01-26 02:27:00,
2013-01-25 20:42:00,52.0,50.0,30.14,NNW,341,1.0,3.0,94,0.06,,,0.11,weatherlink.com 1.10,2013-01-26 02:42:00,
2013-01-25 20:57:00,51.9,50.0,30.15,NNW,347,0.0,4.0,94,0.04,,,0.11,weatherlink.com 1.10,2013-01-26 02:57:00,
2013-01-25 21:11:00,51.8,50.0,30.15,NNW,347,0.0,0.0,94,0.03,,,0.11,weatherlink.com 1.10,2013-01-26 03:11:00,
2013-01-25 21:27:00,51.8,51.0,30.16,NNW,347,0.0,0.0,95,0.01,,,0.12,weatherlink.com 1.10,2013-01-26 03:27:00,
2013-01-25 21:41:00,51.8,51.0,30.16,NNW,347,0.0,0.0,95,0.02,,,0.13,weatherlink.com 1.10,2013-01-26 03:41:00,
2013-01-25 21:56:00,51.8,51.0,30.16,NNW,347,0.0,0.0,95,0.02,,,0.13,weatherlink.com 1.10,2013-01-26 03:56:00,
2013-01-25 22:11:00,51.6,50.0,30.16,NNW,345,0.0,1.0,95,0.02,,,0.13,weatherlink.com 1.10,2013-01-26 04:11:00,
2013-01-25 22:41:00,51.3,50.0,30.16,NNW,333,1.0,1.0,95,0.01,,,0.14,weatherlink.com 1.10,2013-01-26 04:41:00,
2013-01-25 22:56:00,51.1,50.0,30.16,NNW,336,1.0,3.0,95,0.01,,,0.14,weatherlink.com 1.10,2013-01-26 04:56:00,
2013-01-25 23:11:00,50.8,50.0,30.15,North,8,0.0,3.0,95,0.01,,,0.14,weatherlink.com 1.10,2013-01-26 05:11:00,
2013-01-25 23:27:00,50.5,49.0,30.16,West,269,0.0,3.0,95,0.01,,,0.14,weatherlink.com 1.10,2013-01-26 05:27:00,
2013-01-25 23:41:00,50.5,49.0,30.16,West,277,0.0,1.0,95,0.00,,,0.14,weatherlink.com 1.10,2013-01-26 05:41:00,
2013-01-25 23:57:00,50.3,49.0,30.16,West,277,0.0,1.0,95,0.00,,,0.14,weatherlink.com 1.10,2013-01-26 05:57:00,